Voltar ao catálogo

XINGRUI-11

AtivoCiênciaSSO
NORAD 64089·PAYLOAD·🇨🇳 China
Este nome de satélite ainda não foi confirmado por fontes oficiais.

Lançado May 21, 2025 de Jiuquan Satellite Launch Center

Loading…

Próximas Passagens (próximas 24 horas)

TLE

AtualizadoSource: Space-Track

Época: Sep 14, 2026, 15:33 UTC

1 64089U 25108C   26257.64842876  .00003201  00000-0  18521-3 0  9996
2 64089  97.4615 329.9326 0006593  95.0974 265.1010 15.12936836 72796

Acompanhe XINGRUI-11 em tempo real com AllMySat

Download on the App Store